Regional Weather Roundup
Issued by NWS Goodland, KS

Home | Current Version | Previous Version | Text Only | Print | Product List | Glossary Off
Versions: 1 2 3 4 5 6 7 8 9 10 11 12 13 14 15 16 17 18 19 20 21 22 23 24 25 26 27 28 29 30 31 32 33 34 35 36 37 38 39 40 41 42 43 44 45 46 47 48 49 50

000
ASUS43 KGLD 200608
RWRGLD

GOODLAND FORECAST AREA HOURLY WEATHER ROUNDUP
NATIONAL WEATHER SERVICE GOODLAND KS
1200 AM MDT MON OCT 20 2014

...OFFICIAL OBSERVATIONS...

CITY           SKY/WX    TMP DP  RH WIND       PRES   REMARKS
GOODLAND KS    CLEAR     43  40  89 W7        30.12S
HILL CITY KS   CLEAR     46  43  89 CALM      30.05S
IMPERIAL NEB   CLEAR     47  38  71 NW3       30.10R
MCCOOK NEB     CLEAR     44  41  89 W3        30.07S
AKRON CO       CLEAR     53  38  56 S8        30.15S
BURLINGTON CO  CLEAR     42  37  82 CALM      30.13S
LIMON CO       CLEAR     40  35  83 CALM      30.19S
$$

...UNOFFICIAL OBSERVATIONS...

CITY           SKY/WX    TMP DP  RH WIND       PRES   REMARKS
COLBY KS       CLEAR     46  46 100 NW5       30.09S
GOVE KS          N/A     46  32  58 MISG        N/A
NORTON KS      CLEAR     43  37  81 W5        30.04S
SHARON SPRINGS   N/A     48  42  81 CALM        N/A
TRENTON NEB      N/A     56  32  40 CALM        N/A
KIT CARSON CO    N/A     49  41  73 CALM        N/A
YUMA CO          N/A     40  33  76 SW5         N/A
$$


USA.gov is the U.S. government's official web portal to all federal, state and local government web resources and services.